Lancaster, OH

5:18 AM EDT on April 27, 2018 (GMT -0400)
Fairfield County

Weather History for KLHQ - May, 2013

Change the Weather History Date:

Friday, May 31, 2013

  Actual Average Record
Temperature  
Mean Temperature 74 °F -  
Max Temperature 88 °F 75 °F 93 °F (1953)
Min Temperature 62 °F 53 °F 36 °F (1936)
Cooling Degree Days 10    
Growing Degree Days 24 (Base 50)    
Moisture  
Dew Point 63 °F    
Average Humidity 76    
Maximum Humidity 96    
Minimum Humidity 44    
Precipitation  
Precipitation 0.64 in - - ()
Sea Level Pressure  
Sea Level Pressure 30.04 in    
Wind  
Wind Speed 7 mph (SSW)    
Max Wind Speed 28 mph    
Max Gust Speed 39 mph    
Visibility 7 miles    
Events Fog , Rain , Thunderstorm    
Averages and records for this station are not official NWS values.
T = Trace of Precipitation, MM = Missing Value Source: NWS Daily Summary

Daily Weather History Graph

Daily Weather History Graph

Search for Another Location

Airport or City:

Astronomy

May. 31, 2013 Rise Set
Actual Time 6:04 AM EDT 8:52 PM EDT
Civil Twilight 5:33 AM EDT 9:24 PM EDT
Nautical Twilight 4:53 AM EDT 10:04 PM EDT
Astronomical Twilight 4:07 AM EDT 10:50 PM EDT
Moon 1:26 AM EDT (5/31) 1:18 PM EDT (5/31)
Length of Visible Light 15h 51m
Length of Day
14h 47m
Waning Gibbous, 51% of the Moon is Illuminated
May 31
Waning Gibbous
May 31
Last Quarter
Jun 8
New
Jun 16
First Quarter
Jun 23
Full

Hourly Weather History & Observations

Time (EDT) Temp. Heat Index Dew Point Humidity Pressure Visibility Wind Dir Wind Speed Gust Speed Precip Events Conditions
12:53 AM 66.9 °F - 59.0 °F 76% 30.08 in 10.0 mi Calm Calm - N/A   Clear
1:53 AM 64.0 °F - 59.0 °F 84% 30.07 in 10.0 mi SE 5.8 mph - N/A   Clear
2:53 AM 62.1 °F - 59.0 °F 90% 30.09 in 10.0 mi Calm Calm - N/A   Clear
3:53 AM 62.1 °F - 57.9 °F 86% 30.07 in 10.0 mi Calm Calm - N/A   Clear
4:53 AM 63.0 °F - 59.0 °F 87% 30.07 in 10.0 mi South 4.6 mph - N/A   Clear
5:53 AM 63.0 °F - 57.9 °F 84% 30.07 in 10.0 mi SSE 4.6 mph - N/A   Clear
6:53 AM 66.0 °F - 60.1 °F 81% 30.08 in 10.0 mi SSE 4.6 mph - N/A   Clear
7:53 AM 72.0 °F - 63.0 °F 73% 30.09 in 9.0 mi SE 5.8 mph - N/A   Clear
8:53 AM 77.0 °F - 62.1 °F 60% 30.09 in 10.0 mi SSW 10.4 mph - N/A   Mostly Cloudy
9:53 AM 79.0 °F - 62.1 °F 56% 30.09 in 10.0 mi SW 9.2 mph 17.3 mph N/A   Partly Cloudy
10:53 AM 82.0 °F 83.0 °F 62.1 °F 51% 30.08 in 10.0 mi SW 13.8 mph 20.7 mph N/A   Scattered Clouds
11:53 AM 82.9 °F 84.0 °F 63.0 °F 51% 30.07 in 10.0 mi SW 17.3 mph 29.9 mph N/A   Clear
12:53 PM 86.0 °F 86.8 °F 63.0 °F 46% 30.05 in 10.0 mi SW 15.0 mph 20.7 mph N/A   Scattered Clouds
1:53 PM 86.0 °F 86.8 °F 63.0 °F 46% 30.03 in 10.0 mi SW 13.8 mph 24.2 mph N/A   Partly Cloudy
2:53 PM 84.9 °F 85.4 °F 62.1 °F 46% 30.01 in 10.0 mi SSW 12.7 mph 25.3 mph N/A   Scattered Clouds
3:53 PM 87.1 °F 87.8 °F 63.0 °F 44% 29.98 in 10.0 mi SSW 13.8 mph 23.0 mph N/A   Partly Cloudy
4:53 PM 84.0 °F 84.5 °F 62.1 °F 47% 29.97 in 10.0 mi SSW 11.5 mph 19.6 mph N/A   Partly Cloudy
5:53 PM 82.9 °F 84.0 °F 63.0 °F 51% 29.97 in 10.0 mi SSW 6.9 mph - N/A   Mostly Cloudy
6:53 PM 75.9 °F - 64.0 °F 67% 29.97 in 10.0 mi Variable 3.5 mph - N/A   Mostly Cloudy
7:19 PM 71.6 °F - 64.4 °F 78% 30.05 in 0.8 mi West 27.6 mph 39.1 mph 0.12 in Rain Light Rain
7:27 PM 66.2 °F - 64.4 °F 94% 30.04 in 0.2 mi West 16.1 mph 39.1 mph 0.38 in Fog , Rain , Thunderstorm Heavy Thunderstorms and Rain
7:37 PM 66.2 °F - 64.4 °F 94% 30.04 in 1.2 mi West 10.4 mph 21.9 mph 0.46 in Rain , Thunderstorm Thunderstorms and Rain
7:41 PM 66.2 °F - 64.4 °F 94% 30.05 in 2.0 mi WSW 9.2 mph 17.3 mph 0.48 in Rain , Thunderstorm Rain
7:45 PM 66.2 °F - 64.4 °F 94% 30.05 in 1.2 mi WSW 12.7 mph 18.4 mph 0.54 in Rain , Thunderstorm Rain
7:48 PM 66.2 °F - 64.4 °F 94% 30.05 in 1.0 mi WSW 13.8 mph 18.4 mph 0.56 in Rain , Thunderstorm Heavy Thunderstorms and Rain
7:53 PM 66.9 °F - 64.0 °F 90% 30.03 in 1.2 mi WSW 12.7 mph 19.6 mph 0.57 in Rain , Thunderstorm Light Thunderstorms and Rain
7:56 PM 66.2 °F - 64.4 °F 94% 30.05 in 2.5 mi SW 10.4 mph 19.6 mph 0.00 in Rain , Thunderstorm Light Thunderstorms and Rain
8:03 PM 66.2 °F - 64.4 °F 94% 30.04 in 4.0 mi SW 6.9 mph - 0.02 in Rain , Thunderstorm Light Thunderstorms and Rain
8:23 PM 68.0 °F - 64.4 °F 88% 30.03 in 3.0 mi SSW 6.9 mph - 0.06 in Rain Rain
8:53 PM 68.0 °F - 64.9 °F 90% 30.00 in 10.0 mi SSE 4.6 mph - 0.07 in   Overcast
9:53 PM 68.0 °F - 64.9 °F 90% 30.00 in 10.0 mi SSE 4.6 mph - N/A   Scattered Clouds
10:53 PM 66.9 °F - 64.9 °F 93% 29.99 in 10.0 mi SE 4.6 mph - N/A   Scattered Clouds
11:53 PM 66.0 °F - 64.9 °F 96% 29.99 in 8.0 mi Calm Calm - N/A   Clear